Location: Unspecified
(41.1850°N, 73.2650°W)
Time: 02:04:08
(UTC+00:00)

YAOGAN 1 - Pass Details

Date: 14 December 2025
Orbit: 605 x 607 km, 97.8° (Epoch: 14 January)

Event Time Altitude Azimuth Distance (km) Brightness Sun altitude
Rises 22:22:52 0° 132° (SE) 2,854 5.7 -10.6°
Reaches altitude 10° 22:25:27 10° 116° (ESE) 1,955 4.7 -11.1°
Maximum altitude 22:28:38 21° 67° (ENE) 1,374 3.7 -11.6°
Drops below altitude 10° 22:31:51 10° 18° (NNE) 1,965 4.8 -12.2°
Sets 22:34:26 0° 3° (N) 2,873 5.8 -12.7°
